Omaha Offutt, NE

6:01 AM CDT on July 22, 2017 (GMT -0500)
Offutt Air Force Base

Weather History for KOFF - June, 2012

Change the Weather History Date:

Thursday, June 28, 2012

  Actual Average Record
Temperature  
Mean Temperature 84 °F -  
Max Temperature 95 °F 82 °F 95 °F (2012)
Min Temperature 73 °F 63 °F 57 °F (2004)
Cooling Degree Days 18    
Growing Degree Days 34 (Base 50)    
Moisture  
Dew Point 77 °F    
Average Humidity 76    
Maximum Humidity 93    
Minimum Humidity 62    
Precipitation  
Precipitation 0.00 in - - ()
Sea Level Pressure  
Sea Level Pressure 29.82 in    
Wind  
Wind Speed 5 mph (ENE)    
Max Wind Speed 9 mph    
Max Gust Speed -    
Visibility 10 miles    
Events Rain    
Averages and records for this station are not official NWS values.
T = Trace of Precipitation, MM = Missing Value Source: NWS Daily Summary

Daily Weather History Graph

Daily Weather History Graph

Search for Another Location

Airport or City:

Trip Planner

Search our weather history database for the weather conditions in past years. The results will help you decide how hot, cold, wet, or windy it might be!

Date:

Astronomy

Jun. 28, 2012 Rise Set
Actual Time 5:53 AM CDT 9:00 PM CDT
Civil Twilight 5:20 AM CDT 9:33 PM CDT
Nautical Twilight 4:37 AM CDT 10:16 PM CDT
Astronomical Twilight 3:46 AM CDT 11:07 PM CDT
Moon 3:34 PM CDT (6/28) 1:29 AM CDT (6/28)
Length of Visible Light 16h 13m
Length of Day
15h 06m
Waxing Gibbous, 67% of the Moon is Illuminated
Jun 28
Waxing Gibbous
Jul 3
Full
Jul 10
Last Quarter
Jul 18
New
Jul 26
First Quarter

Hourly Weather History & Observations

Time (CDT) Temp. Heat Index Dew Point Humidity Pressure Visibility Wind Dir Wind Speed Gust Speed Precip Events Conditions
12:55 AM 77.9 °F - 71.6 °F 81% 29.72 in 10.0 mi SE 3.5 mph - N/A   Clear
1:55 AM 73.2 °F - 70.7 °F 92% 29.73 in 10.0 mi Calm Calm - N/A   Clear
3:55 AM 80.4 °F 83.8 °F 70.3 °F 71% 29.75 in 10.0 mi Variable 4.6 mph - N/A   Clear
4:55 AM 78.8 °F - 70.2 °F 75% 29.75 in 10.0 mi SW 5.8 mph - N/A   Clear
5:55 AM 76.5 °F - 71.4 °F 84% 29.77 in 10.0 mi WNW 6.9 mph - N/A   Clear
6:55 AM 77.5 °F - 73.0 °F 86% 29.80 in 10.0 mi West 5.8 mph - N/A   Clear
7:55 AM 79.7 °F - 74.8 °F 85% 29.83 in 10.0 mi NW 5.8 mph - N/A   Clear
8:55 AM 82.2 °F 89.9 °F 76.1 °F 82% 29.83 in 10.0 mi North 3.5 mph - N/A   Partly Cloudy
9:55 AM 84.9 °F 95.3 °F 77.0 °F 77% 29.84 in 10.0 mi East 3.5 mph - N/A   Clear
10:55 AM 87.6 °F 102.0 °F 78.6 °F 75% 29.84 in 10.0 mi NE 8.1 mph - N/A   Clear
11:45 AM 87.8 °F 102.5 °F 78.8 °F 75% 29.86 in 10.0 mi NE 3.5 mph - N/A   Mostly Cloudy
11:47 AM 87.8 °F 102.5 °F 78.8 °F 75% 29.85 in 10.0 mi NNE 4.6 mph - N/A   Scattered Clouds
11:52 AM 87.8 °F 102.5 °F 78.8 °F 75% 29.85 in 10.0 mi Variable 3.5 mph - N/A   Mostly Cloudy
11:55 AM 88.3 °F 103.5 °F 79.2 °F 74% 29.86 in 10.0 mi NE 3.5 mph - N/A   Mostly Cloudy
12:09 PM 89.6 °F 104.7 °F 78.8 °F 70% 29.86 in 10.0 mi Variable 4.6 mph - N/A   Scattered Clouds
12:55 PM 89.8 °F 105.9 °F 79.2 °F 71% 29.86 in 10.0 mi ENE 6.9 mph - N/A   Partly Cloudy
1:55 PM 92.3 °F 110.7 °F 80.1 °F 67% 29.86 in 10.0 mi NE 4.6 mph - 0.00 in   Partly Cloudy
2:23 PM 93.2 °F 113.6 °F 80.6 °F 67% 29.85 in 10.0 mi ENE 4.6 mph - N/A Rain Light Rain
2:55 PM 92.8 °F 110.8 °F 79.5 °F 65% 29.85 in 10.0 mi East 5.8 mph - N/A   Partly Cloudy
3:55 PM 94.8 °F 114.3 °F 80.1 °F 62% 29.84 in 10.0 mi ESE 9.2 mph - N/A   Partly Cloudy
4:55 PM 94.8 °F 114.3 °F 79.9 °F 62% 29.83 in 10.0 mi East 5.8 mph - N/A   Clear
5:55 PM 93.6 °F 110.5 °F 78.6 °F 62% 29.83 in 10.0 mi SSE 6.9 mph - N/A   Partly Cloudy
6:55 PM 91.2 °F 109.7 °F 80.1 °F 70% 29.82 in 10.0 mi ESE 8.1 mph - N/A   Clear
7:55 PM 91.2 °F 111.2 °F 81.0 °F 72% 29.79 in 10.0 mi ESE 9.2 mph - N/A   Partly Cloudy
8:55 PM 87.6 °F 102.6 °F 79.3 °F 76% 29.81 in 10.0 mi ENE 4.6 mph - N/A   Clear
9:55 PM 84.6 °F 97.3 °F 79.3 °F 84% 29.81 in 10.0 mi NE 5.8 mph - N/A   Clear
10:55 PM 82.8 °F 93.9 °F 79.5 °F 90% 29.82 in 10.0 mi NE 8.1 mph - N/A   Mostly Cloudy
11:55 PM 80.6 °F 87.9 °F 78.3 °F 93% 29.81 in 10.0 mi ENE 4.6 mph - N/A   Partly Cloudy